Station Historical Data
 
Daily Summary for July 20, 2017 Units:  English    Metric   Both
« Previous Day
Next Day »
Daily Weekly Monthly Yearly Custom
  Current: High: Low: Average:
Temperature: 84.5 °F 85.9 °F 64.7 °F 71.8 °F
Dew Point: 44.9 °F 50.7 °F 41.5 °F 45.2 °F
Humidity: 25 % 46 % 25 % 39 %
Wind Speed: 0.0 mph 19.0 mph 0.0 mph 4.4 mph
Wind Gust: 1.0 mph 19.0 mph - -
Wind:Calm - - SE
Pressure: 29.97 in 30.00 in 29.94 in -
Precipitation: 0.00 in      
Historical Graphs
 
 
Tabular Data for July 20, 2017
Time Temperature Dew Point Pressure Wind Wind Speed Wind Gust Humidity Rainfall Rate (Hourly) solar
00:01 68.8 °F 44.8 °F 29.96 in Calm   1.0 mph 42 % 0.00 in 0.00 W/m2
00:06 68.7 °F 44.7 °F 29.96 in East 6.0 mph 8.0 mph 42 % 0.00 in 0.00 W/m2
00:11 68.6 °F 44.0 °F 29.95 in ESE 2.0 mph 7.0 mph 41 % 0.00 in 0.00 W/m2
00:16 68.5 °F 44.5 °F 29.95 in East 7.0 mph 7.0 mph 42 % 0.00 in 0.00 W/m2
00:21 68.5 °F 44.5 °F 29.95 in ESE 7.0 mph 7.0 mph 42 % 0.00 in 0.00 W/m2
00:26 68.3 °F 44.3 °F 29.95 in ESE 1.0 mph 6.0 mph 42 % 0.00 in 0.00 W/m2
00:31 68.3 °F 44.3 °F 29.95 in East 6.0 mph 9.0 mph 42 % 0.00 in 0.00 W/m2
00:36 68.2 °F 44.3 °F 29.95 in Calm   6.0 mph 42 % 0.00 in 0.00 W/m2
00:41 68.1 °F 43.5 °F 29.96 in East 8.0 mph 11.0 mph 41 % 0.00 in 0.00 W/m2
00:46 68.0 °F 43.5 °F 29.95 in East 2.0 mph 9.0 mph 41 % 0.00 in 0.00 W/m2
00:51 68.0 °F 44.1 °F 29.95 in East 2.0 mph 7.0 mph 42 % 0.00 in 0.00 W/m2
00:56 67.9 °F 43.4 °F 29.95 in ESE 1.0 mph 5.0 mph 41 % 0.00 in 0.00 W/m2
01:01 67.9 °F 44.0 °F 29.95 in East 8.0 mph 11.0 mph 42 % 0.00 in 0.00 W/m2
01:06 67.8 °F 43.9 °F 29.95 in East 8.0 mph 8.0 mph 42 % 0.00 in 0.00 W/m2
01:11 67.7 °F 43.8 °F 29.95 in East 7.0 mph 11.0 mph 42 % 0.00 in 0.00 W/m2
01:16 67.7 °F 43.8 °F 29.95 in East 11.0 mph 11.0 mph 42 % 0.00 in 0.00 W/m2
01:21 67.6 °F 43.1 °F 29.95 in Calm   4.0 mph 41 % 0.00 in 0.00 W/m2
01:22 67.6 °F 43.1 °F 29.95 in ESE 7.0 mph 12.0 mph 41 % 0.00 in 0.00 W/m2
01:27 67.5 °F 43.0 °F 29.95 in East 8.0 mph 13.0 mph 41 % 0.00 in 0.00 W/m2
01:32 67.5 °F 43.6 °F 29.95 in ESE 9.0 mph 14.0 mph 42 % 0.00 in 0.00 W/m2
01:37 67.5 °F 43.6 °F 29.95 in East 9.0 mph 11.0 mph 42 % 0.00 in 0.00 W/m2
01:43 67.5 °F 43.6 °F 29.95 in East 6.0 mph 13.0 mph 42 % 0.00 in 0.00 W/m2
01:48 67.5 °F 43.0 °F 29.95 in ESE 4.0 mph 13.0 mph 41 % 0.00 in 0.00 W/m2
01:53 67.4 °F 42.9 °F 29.95 in Calm   14.0 mph 41 % 0.00 in 0.00 W/m2
01:58 67.4 °F 42.9 °F 29.94 in Calm   14.0 mph 41 % 0.00 in 0.00 W/m2
02:03 67.5 °F 43.0 °F 29.94 in East 9.0 mph 18.0 mph 41 % 0.00 in 0.00 W/m2
02:08 67.5 °F 43.0 °F 29.94 in ESE 14.0 mph 14.0 mph 41 % 0.00 in 0.00 W/m2
02:13 67.5 °F 43.0 °F 29.94 in ESE 5.0 mph 13.0 mph 41 % 0.00 in 0.00 W/m2
02:18 67.5 °F 43.6 °F 29.94 in ESE 19.0 mph 19.0 mph 42 % 0.00 in 0.00 W/m2
02:23 67.5 °F 43.0 °F 29.94 in East 14.0 mph 18.0 mph 41 % 0.00 in 0.00 W/m2
02:29 67.5 °F 43.0 °F 29.94 in East 1.0 mph 16.0 mph 41 % 0.00 in 0.00 W/m2
02:33 67.4 °F 42.9 °F 29.94 in ESE 4.0 mph 18.0 mph 41 % 0.00 in 0.00 W/m2
02:38 67.5 °F 43.0 °F 29.94 in East 4.0 mph 14.0 mph 41 % 0.00 in 0.00 W/m2
02:44 67.4 °F 42.9 °F 29.94 in East 2.0 mph 16.0 mph 41 % 0.00 in 0.00 W/m2
02:49 67.4 °F 42.9 °F 29.94 in ESE 16.0 mph 16.0 mph 41 % 0.00 in 0.00 W/m2
02:54 67.4 °F 43.5 °F 29.94 in East 4.0 mph 19.0 mph 42 % 0.00 in 0.00 W/m2
02:59 67.3 °F 42.8 °F 29.94 in East 7.0 mph 16.0 mph 41 % 0.00 in 0.00 W/m2
03:04 67.3 °F 42.8 °F 29.94 in ESE 5.0 mph 16.0 mph 41 % 0.00 in 0.00 W/m2
03:09 67.3 °F 42.8 °F 29.94 in East 5.0 mph 16.0 mph 41 % 0.00 in 0.00 W/m2
03:14 67.2 °F 43.4 °F 29.94 in ESE 11.0 mph 14.0 mph 42 % 0.00 in 0.00 W/m2
03:19 67.2 °F 43.4 °F 29.94 in ESE 2.0 mph 16.0 mph 42 % 0.00 in 0.00 W/m2
03:24 67.1 °F 42.6 °F 29.94 in ESE 8.0 mph 16.0 mph 41 % 0.00 in 0.00 W/m2
03:29 67.0 °F 42.5 °F 29.94 in East 9.0 mph 14.0 mph 41 % 0.00 in 0.00 W/m2
03:34 67.0 °F 43.2 °F 29.94 in East 5.0 mph 18.0 mph 42 % 0.00 in 0.00 W/m2
03:39 67.0 °F 42.5 °F 29.94 in ESE 7.0 mph 14.0 mph 41 % 0.00 in 0.00 W/m2
03:44 67.0 °F 43.2 °F 29.94 in ESE 6.0 mph 12.0 mph 42 % 0.00 in 0.00 W/m2
03:49 66.9 °F 43.1 °F 29.94 in Calm   14.0 mph 42 % 0.00 in 0.00 W/m2
03:54 66.9 °F 43.1 °F 29.94 in ESE 8.0 mph 14.0 mph 42 % 0.00 in 0.00 W/m2
03:59 66.9 °F 43.1 °F 29.94 in East 9.0 mph 13.0 mph 42 % 0.00 in 0.00 W/m2
04:04 66.8 °F 43.0 °F 29.94 in East 2.0 mph 15.0 mph 42 % 0.00 in 0.00 W/m2
04:09 66.8 °F 43.0 °F 29.94 in East 7.0 mph 15.0 mph 42 % 0.00 in 0.00 W/m2
04:14 66.7 °F 42.9 °F 29.94 in ESE 4.0 mph 12.0 mph 42 % 0.00 in 0.00 W/m2
04:19 66.6 °F 42.8 °F 29.94 in ESE 5.0 mph 14.0 mph 42 % 0.00 in 0.00 W/m2
04:24 66.6 °F 42.8 °F 29.95 in Calm   12.0 mph 42 % 0.00 in 0.00 W/m2
04:29 66.5 °F 42.7 °F 29.95 in East 4.0 mph 14.0 mph 42 % 0.00 in 0.00 W/m2
04:34 66.4 °F 42.6 °F 29.95 in East 4.0 mph 13.0 mph 42 % 0.00 in 0.00 W/m2
04:39 66.3 °F 42.5 °F 29.95 in East 6.0 mph 11.0 mph 42 % 0.00 in 0.00 W/m2
04:44 66.3 °F 43.2 °F 29.95 in East 7.0 mph 14.0 mph 43 % 0.00 in 0.00 W/m2
04:49 66.2 °F 42.5 °F 29.95 in East 7.0 mph 12.0 mph 42 % 0.00 in 0.00 W/m2
04:54 66.2 °F 42.5 °F 29.95 in ESE 13.0 mph 13.0 mph 42 % 0.00 in 0.00 W/m2
04:59 66.2 °F 42.5 °F 29.95 in ESE 7.0 mph 12.0 mph 42 % 0.00 in 0.00 W/m2
05:04 66.1 °F 42.4 °F 29.95 in ESE 4.0 mph 13.0 mph 42 % 0.00 in 0.00 W/m2
05:09 66.1 °F 42.4 °F 29.96 in East 4.0 mph 16.0 mph 42 % 0.00 in 0.00 W/m2
05:14 66.1 °F 43.0 °F 29.96 in East 14.0 mph 14.0 mph 43 % 0.00 in 0.00 W/m2
05:19 66.0 °F 42.3 °F 29.96 in East 4.0 mph 14.0 mph 42 % 0.00 in 0.00 W/m2
05:24 66.0 °F 42.3 °F 29.96 in ESE 5.0 mph 14.0 mph 42 % 0.00 in 0.00 W/m2
05:30 65.9 °F 42.2 °F 29.96 in ESE 7.0 mph 12.0 mph 42 % 0.00 in 0.00 W/m2
05:31 65.9 °F 42.2 °F 29.96 in ESE 8.0 mph 9.0 mph 42 % 0.00 in 0.00 W/m2
05:36 65.9 °F 42.2 °F 29.97 in Calm   1.0 mph 42 % 0.00 in 0.00 W/m2
05:41 65.8 °F 42.1 °F 29.97 in East 8.0 mph 12.0 mph 42 % 0.00 in 0.00 W/m2
05:46 65.8 °F 42.1 °F 29.97 in ESE 6.0 mph 11.0 mph 42 % 0.00 in 0.00 W/m2
05:51 65.8 °F 42.1 °F 29.97 in Calm   6.0 mph 42 % 0.00 in 0.00 W/m2
05:56 65.7 °F 42.0 °F 29.97 in East 1.0 mph 9.0 mph 42 % 0.00 in 5.00 W/m2
06:01 65.7 °F 42.0 °F 29.97 in ESE 8.0 mph 12.0 mph 42 % 0.00 in 7.00 W/m2
06:06 65.6 °F 41.9 °F 29.97 in East 14.0 mph 14.0 mph 42 % 0.00 in 11.00 W/m2
06:11 65.5 °F 41.8 °F 29.98 in East 8.0 mph 11.0 mph 42 % 0.00 in 14.00 W/m2
06:16 65.4 °F 41.7 °F 29.97 in East 9.0 mph 12.0 mph 42 % 0.00 in 16.00 W/m2
06:21 65.3 °F 41.6 °F 29.98 in East 5.0 mph 11.0 mph 42 % 0.00 in 19.00 W/m2
06:26 65.3 °F 41.6 °F 29.97 in East 4.0 mph 11.0 mph 42 % 0.00 in 23.00 W/m2
06:31 65.2 °F 41.5 °F 29.98 in ESE 11.0 mph 11.0 mph 42 % 0.00 in 28.00 W/m2
06:36 65.1 °F 41.5 °F 29.97 in ESE 7.0 mph 12.0 mph 42 % 0.00 in 33.00 W/m2
06:41 65.1 °F 42.1 °F 29.97 in East 14.0 mph 14.0 mph 43 % 0.00 in 44.00 W/m2
06:46 65.1 °F 42.1 °F 29.98 in ESE 7.0 mph 16.0 mph 43 % 0.00 in 58.00 W/m2
06:51 65.0 °F 42.0 °F 29.98 in East 4.0 mph 13.0 mph 43 % 0.00 in 65.00 W/m2
06:56 64.9 °F 42.5 °F 29.98 in East 11.0 mph 13.0 mph 44 % 0.00 in 83.00 W/m2
07:01 64.9 °F 42.5 °F 29.98 in ESE 7.0 mph 7.0 mph 44 % 0.00 in 95.00 W/m2
07:06 64.8 °F 42.4 °F 29.98 in ESE 8.0 mph 15.0 mph 44 % 0.00 in 111.00 W/m2
07:11 64.7 °F 42.3 °F 29.98 in ESE 11.0 mph 12.0 mph 44 % 0.00 in 120.00 W/m2
07:16 64.7 °F 41.7 °F 29.98 in ESE 6.0 mph 11.0 mph 43 % 0.00 in 144.00 W/m2
07:21 64.7 °F 41.7 °F 29.98 in ESE 8.0 mph 13.0 mph 43 % 0.00 in 174.00 W/m2
07:26 64.7 °F 41.7 °F 29.98 in Calm   15.0 mph 43 % 0.00 in 188.00 W/m2
07:31 64.8 °F 41.8 °F 29.98 in Calm   12.0 mph 43 % 0.00 in 218.00 W/m2
07:36 64.9 °F 42.5 °F 29.98 in ESE 5.0 mph 14.0 mph 44 % 0.00 in 234.00 W/m2
07:41 65.0 °F 43.2 °F 29.98 in East 4.0 mph 15.0 mph 45 % 0.00 in 251.00 W/m2
07:46 65.1 °F 43.3 °F 29.98 in East 11.0 mph 14.0 mph 45 % 0.00 in 253.00 W/m2
07:51 65.2 °F 42.8 °F 29.99 in East 6.0 mph 12.0 mph 44 % 0.00 in 271.00 W/m2
07:56 65.3 °F 43.4 °F 29.98 in ESE 4.0 mph 11.0 mph 45 % 0.00 in 288.00 W/m2
08:01 65.4 °F 43.5 °F 29.99 in East 3.0 mph 12.0 mph 45 % 0.00 in 318.00 W/m2
08:06 65.6 °F 43.1 °F 29.98 in East 2.0 mph 12.0 mph 44 % 0.00 in 336.00 W/m2
08:11 65.7 °F 43.8 °F 29.99 in East 6.0 mph 12.0 mph 45 % 0.00 in 350.00 W/m2
08:16 65.8 °F 43.9 °F 29.99 in East 11.0 mph 11.0 mph 45 % 0.00 in 364.00 W/m2
08:21 66.0 °F 44.1 °F 29.99 in Calm   11.0 mph 45 % 0.00 in 380.00 W/m2
08:26 66.2 °F 44.2 °F 29.99 in East 5.0 mph 11.0 mph 45 % 0.00 in 397.00 W/m2
08:31 66.3 °F 44.3 °F 29.99 in ESE 7.0 mph 14.0 mph 45 % 0.00 in 413.00 W/m2
08:36 66.6 °F 44.6 °F 29.99 in ESE 11.0 mph 11.0 mph 45 % 0.00 in 436.00 W/m2
08:41 66.8 °F 44.8 °F 29.99 in ESE 5.0 mph 13.0 mph 45 % 0.00 in 452.00 W/m2
08:47 67.1 °F 45.1 °F 29.99 in ESE 12.0 mph 14.0 mph 45 % 0.00 in 464.00 W/m2
08:48 67.1 °F 45.1 °F 29.99 in East 4.0 mph 14.0 mph 45 % 0.00 in 462.00 W/m2
08:53 67.4 °F 45.3 °F 29.99 in East 7.0 mph 12.0 mph 45 % 0.00 in 483.00 W/m2
08:58 67.7 °F 45.0 °F 29.99 in East 7.0 mph 11.0 mph 44 % 0.00 in 503.00 W/m2
09:03 67.9 °F 45.8 °F 29.99 in Calm   8.0 mph 45 % 0.00 in 508.00 W/m2
09:08 68.2 °F 44.9 °F 30.00 in ESE 2.0 mph 8.0 mph 43 % 0.00 in 536.00 W/m2
09:13 68.6 °F 45.2 °F 29.99 in ESE 7.0 mph 11.0 mph 43 % 0.00 in 547.00 W/m2
09:18 69.0 °F 46.2 °F 29.99 in ESE 6.0 mph 8.0 mph 44 % 0.00 in 563.00 W/m2
09:23 69.3 °F 46.5 °F 30.00 in ESE 2.0 mph 5.0 mph 44 % 0.00 in 573.00 W/m2
09:28 69.8 °F 47.5 °F 30.00 in ESE 7.0 mph 8.0 mph 45 % 0.00 in 589.00 W/m2
09:33 70.1 °F 46.6 °F 29.99 in ESE 6.0 mph 9.0 mph 43 % 0.00 in 606.00 W/m2
09:38 70.4 °F 46.9 °F 30.00 in Calm   6.0 mph 43 % 0.00 in 621.00 W/m2
09:43 70.7 °F 47.1 °F 29.99 in Calm   6.0 mph 43 % 0.00 in 633.00 W/m2
09:48 71.0 °F 48.0 °F 30.00 in Calm   5.0 mph 44 % 0.00 in 642.00 W/m2
09:53 71.3 °F 48.9 °F 30.00 in Calm   4.0 mph 45 % 0.00 in 652.00 W/m2
09:58 71.5 °F 49.1 °F 30.00 in Calm   4.0 mph 45 % 0.00 in 666.00 W/m2
10:03 71.8 °F 49.9 °F 30.00 in Calm   4.0 mph 46 % 0.00 in 684.00 W/m2
10:08 72.2 °F 49.7 °F 30.00 in ESE 1.0 mph 4.0 mph 45 % 0.00 in 694.00 W/m2
10:13 72.8 °F 49.6 °F 30.00 in ESE 1.0 mph 1.0 mph 44 % 0.00 in 705.00 W/m2
10:18 73.2 °F 49.4 °F 30.00 in ESE 4.0 mph 5.0 mph 43 % 0.00 in 717.00 W/m2
10:23 73.6 °F 48.5 °F 30.00 in Calm   1.0 mph 41 % 0.00 in 724.00 W/m2
10:28 74.1 °F 48.3 °F 30.00 in Calm   2.0 mph 40 % 0.00 in 744.00 W/m2
10:33 74.4 °F 48.5 °F 30.00 in SSW 3.0 mph 7.0 mph 40 % 0.00 in 759.00 W/m2
10:38 74.8 °F 48.2 °F 30.00 in Calm   1.0 mph 39 % 0.00 in 758.00 W/m2
10:43 75.1 °F 48.5 °F 30.00 in SW 3.0 mph 6.0 mph 39 % 0.00 in 779.00 W/m2
10:48 75.6 °F 48.9 °F 30.00 in Calm   1.0 mph 39 % 0.00 in 791.00 W/m2
10:53 76.0 °F 48.6 °F 30.00 in Calm   4.0 mph 38 % 0.00 in 780.00 W/m2
10:58 76.3 °F 49.5 °F 30.00 in SW 4.0 mph 5.0 mph 39 % 0.00 in 780.00 W/m2
11:03 76.6 °F 49.1 °F 30.00 in Calm   5.0 mph 38 % 0.00 in 803.00 W/m2
11:08 76.9 °F 47.9 °F 30.00 in Calm   4.0 mph 36 % 0.00 in 802.00 W/m2
11:13 77.2 °F 49.7 °F 30.00 in SSW 4.0 mph 4.0 mph 38 % 0.00 in 840.00 W/m2
11:18 77.4 °F 49.1 °F 30.00 in SSW 4.0 mph 6.0 mph 37 % 0.00 in 819.00 W/m2
11:24 77.7 °F 49.4 °F 30.00 in Calm   4.0 mph 37 % 0.00 in 833.00 W/m2
11:29 78.0 °F 49.7 °F 30.00 in South 1.0 mph 5.0 mph 37 % 0.00 in 851.00 W/m2
11:34 78.3 °F 50.6 °F 30.00 in SW 3.0 mph 7.0 mph 38 % 0.00 in 870.00 W/m2
11:39 78.7 °F 48.8 °F 30.00 in SSW 6.0 mph 6.0 mph 35 % 0.00 in 865.00 W/m2
11:44 79.0 °F 49.8 °F 30.00 in Calm     36 % 0.00 in 844.00 W/m2
11:49 79.4 °F 49.4 °F 30.00 in SSW 4.0 mph 7.0 mph 35 % 0.00 in 884.00 W/m2
11:54 79.7 °F 49.7 °F 30.00 in SW 5.0 mph 7.0 mph 35 % 0.00 in 874.00 W/m2
11:59 80.1 °F 49.2 °F 30.00 in Calm   5.0 mph 34 % 0.00 in 886.00 W/m2
12:04 80.4 °F 49.5 °F 30.00 in SSW 3.0 mph 5.0 mph 34 % 0.00 in 898.00 W/m2
12:09 80.7 °F 47.3 °F 30.00 in SSW 3.0 mph 7.0 mph 31 % 0.00 in 907.00 W/m2
12:14 81.2 °F 48.6 °F 30.00 in SSW 4.0 mph 6.0 mph 32 % 0.00 in 912.00 W/m2
12:19 81.8 °F 49.1 °F 30.00 in South 4.0 mph 9.0 mph 32 % 0.00 in 891.00 W/m2
12:24 82.3 °F 49.5 °F 30.00 in Calm   2.0 mph 32 % 0.00 in 909.00 W/m2
12:29 82.7 °F 50.7 °F 30.00 in WSW 8.0 mph 9.0 mph 33 % 0.00 in 911.00 W/m2
12:34 82.7 °F 49.0 °F 29.99 in Calm   6.0 mph 31 % 0.00 in 895.00 W/m2
12:39 82.3 °F 49.5 °F 30.00 in Calm   5.0 mph 32 % 0.00 in 900.00 W/m2
12:44 82.1 °F 49.3 °F 30.00 in WSW 3.0 mph 9.0 mph 32 % 0.00 in 896.00 W/m2
12:49 82.0 °F 50.1 °F 30.00 in Calm   9.0 mph 33 % 0.00 in 921.00 W/m2
12:54 82.0 °F 48.4 °F 29.99 in Calm   7.0 mph 31 % 0.00 in 923.00 W/m2
12:59 82.1 °F 47.6 °F 29.99 in Calm   7.0 mph 30 % 0.00 in 919.00 W/m2
13:00 82.2 °F 47.7 °F 29.99 in Calm   7.0 mph 30 % 0.00 in 933.00 W/m2
13:05 82.6 °F 48.1 °F 29.99 in Calm   9.0 mph 30 % 0.00 in 916.00 W/m2
13:11 83.1 °F 48.5 °F 29.99 in WSW 7.0 mph 7.0 mph 30 % 0.00 in 907.00 W/m2
13:16 83.3 °F 48.7 °F 29.99 in SW 3.0 mph 11.0 mph 30 % 0.00 in 921.00 W/m2
13:21 83.3 °F 49.5 °F 29.99 in WSW 8.0 mph 10.0 mph 31 % 0.00 in 937.00 W/m2
13:26 83.3 °F 46.8 °F 29.99 in WSW 6.0 mph 9.0 mph 28 % 0.00 in 928.00 W/m2
13:31 83.1 °F 47.6 °F 29.99 in WSW 2.0 mph 3.0 mph 29 % 0.00 in 926.00 W/m2
13:36 83.0 °F 48.4 °F 29.99 in WSW 6.0 mph 6.0 mph 30 % 0.00 in 921.00 W/m2
13:41 83.0 °F 48.4 °F 29.99 in Calm   1.0 mph 30 % 0.00 in 923.00 W/m2
13:46 82.8 °F 47.3 °F 29.99 in Calm   9.0 mph 29 % 0.00 in 919.00 W/m2
13:51 82.8 °F 49.1 °F 29.99 in Calm   10.0 mph 31 % 0.00 in 921.00 W/m2
13:56 82.9 °F 48.3 °F 29.99 in Calm   5.0 mph 30 % 0.00 in 923.00 W/m2
14:01 83.0 °F 47.5 °F 29.99 in Calm     29 % 0.00 in 914.00 W/m2
14:06 83.5 °F 47.9 °F 29.99 in Calm   7.0 mph 29 % 0.00 in 912.00 W/m2
14:11 84.0 °F 47.4 °F 29.99 in Calm   9.0 mph 28 % 0.00 in 909.00 W/m2
14:16 84.3 °F 47.7 °F 29.98 in SW 4.0 mph 6.0 mph 28 % 0.00 in 896.00 W/m2
14:21 84.6 °F 47.0 °F 29.98 in SW 1.0 mph 1.0 mph 27 % 0.00 in 893.00 W/m2
14:26 85.1 °F 48.4 °F 29.98 in Calm     28 % 0.00 in 886.00 W/m2
14:31 85.5 °F 47.7 °F 29.99 in SW 2.0 mph 2.0 mph 27 % 0.00 in 882.00 W/m2
14:36 85.9 °F 47.1 °F 29.98 in Calm     26 % 0.00 in 882.00 W/m2
14:41 85.4 °F 46.7 °F 29.98 in Calm     26 % 0.00 in 874.00 W/m2
14:46 84.5 °F 46.9 °F 29.98 in Calm   3.0 mph 27 % 0.00 in 856.00 W/m2
14:51 84.0 °F 47.4 °F 29.98 in SW 5.0 mph 6.0 mph 28 % 0.00 in 853.00 W/m2
14:56 84.0 °F 47.4 °F 29.98 in WSW 1.0 mph 3.0 mph 28 % 0.00 in 842.00 W/m2
15:01 84.1 °F 48.5 °F 29.98 in Calm     29 % 0.00 in 835.00 W/m2
15:06 84.1 °F 46.5 °F 29.98 in SW 5.0 mph 5.0 mph 27 % 0.00 in 837.00 W/m2
15:11 84.3 °F 46.7 °F 29.98 in WSW 6.0 mph 9.0 mph 27 % 0.00 in 830.00 W/m2
15:16 84.2 °F 46.6 °F 29.98 in West 1.0 mph 1.0 mph 27 % 0.00 in 814.00 W/m2
15:21 84.2 °F 45.6 °F 29.97 in Calm     26 % 0.00 in 809.00 W/m2
15:26 84.3 °F 44.7 °F 29.97 in Calm     25 % 0.00 in 798.00 W/m2
15:31 84.5 °F 44.9 °F 29.97 in Calm   1.0 mph 25 % 0.00 in 782.00 W/m2
Juneau County Weather
Compliments of Weather Underground - 4.25 mb
 WU-history PHP script courtesy of   Juneau County Weather.
powered by Cumulus v1.9.3 (1059)
Ambient Weather VWS v14.00
Top Contact Website Map Copyright © 2007 - 2017 Foresthillweather.com Never base important decisions on this or any weather information obtained from the Internet